GFSNIL_sfc_thetae_000.txt.gz
Theta_e
282 281 281 280 280 279 279 280 280 280 280 280 280 280 281 281 281 281 281 281 281 282
280 279 279 278 278 278 279 278 278 278 278 278 279 279 279 279 279 280 280 280 281 281
279 278 277 277 276 277 277 277 276 276 276 276 277 277 277 277 278 278 279 279 279 279
277 276 276 275 276 276 275 275 275 275 274 274 274 275 275 275 275 275 275 276 277 277
276 275 274 275 275 274 274 274 273 273 272 272 272 273 272 272 272 272 272 272 273 274
274 274 273 273 273 273 272 272 272 271 271 270 270 270 270 270 270 270 270 270 270 271
274 273 272 272 272 271 271 270 270 270 269 269 269 269 269 269 269 270 271 271 271 272
272 271 271 270 270 270 269 269 269 268 268 269 269 269 269 270 270 270 271 272 272 273
270 270 269 269 268 267 267 267 267 267 268 268 268 270 272 272 272 271 271 271 272 272
269 268 267 266 266 266 266 266 266 267 267 267 267 270 272 273 272 272 272 272 272 273
267 266 266 265 265 265 266 266 266 266 266 267 267 270 271 272 272 272 272 272 272 272
266 264 264 262 264 264 265 265 264 266 265 265 265 269 271 272 271 271 272 273 273 273
265 262 261 263 262 264 263 264 265 265 265 265 265 269 271 272 272 271 272 273 274 275
263 261 261 261 262 262 262 263 263 264 266 267 269 269 272 274 273 272 272 272 272 273

GFSNIL_sfc_thetae_003.txt.gz
Theta_e
288 287 286 285 284 283 283 283 283 282 281 281 281 281 281 281 281 282 282 281 282 282
286 285 284 283 283 282 282 281 281 280 279 279 279 279 279 279 279 280 280 280 281 281
284 284 283 282 280 280 280 280 279 278 278 278 277 277 277 277 278 278 279 279 279 279
283 282 281 279 279 279 279 278 277 276 276 275 275 275 275 275 275 275 275 276 276 276
281 279 278 277 278 278 276 276 275 275 274 273 273 273 273 272 273 272 272 272 272 272
278 277 277 277 276 276 275 274 274 273 272 272 272 271 271 271 271 270 270 271 271 271
277 276 276 276 275 274 273 272 272 272 271 270 270 271 271 271 270 270 271 272 272 272
276 276 275 273 273 272 271 271 270 270 269 270 270 270 270 271 271 271 272 272 272 273
275 273 273 272 271 270 269 269 269 269 269 269 270 272 273 273 272 272 271 271 272 273
273 271 271 270 269 268 268 269 268 268 269 269 269 272 273 273 272 271 271 271 271 272
271 270 269 268 267 267 268 267 268 268 268 268 269 272 272 273 272 271 271 272 272 273
270 268 267 266 266 267 267 267 267 267 267 266 266 270 272 273 271 272 272 273 274 274
269 267 266 266 266 267 266 266 267 267 267 266 266 270 273 274 273 271 273 274 275 275
267 265 265 265 266 264 264 266 264 265 267 268 270 270 273 275 274 273 273 272 271 272

GFSNIL_sfc_thetae_006.txt.gz
Theta_e
285 286 284 283 282 280 279 279 280 279 278 278 279 278 278 278 278 278 279 278 278 279
285 283 283 281 280 279 278 279 278 278 277 277 277 277 277 277 277 277 278 278 278 278
284 282 280 279 278 278 277 277 276 276 276 276 276 276 275 276 276 276 276 277 276 277
281 280 279 278 277 277 277 276 276 275 275 275 275 275 274 274 274 274 274 274 274 274
280 279 278 277 276 276 275 275 275 274 274 274 273 273 273 272 273 272 272 272 272 271
279 277 276 276 275 275 274 274 274 273 272 272 272 272 272 271 271 271 270 271 271 271
277 276 275 275 274 274 273 272 272 272 272 271 271 271 271 271 271 270 271 271 272 272
276 275 275 274 273 273 272 271 271 271 270 270 270 270 270 271 271 271 271 272 273 273
275 275 274 273 272 271 271 271 270 270 269 269 270 273 275 275 272 273 272 271 272 273
274 273 272 272 271 271 270 270 270 270 270 269 270 273 275 275 274 272 271 271 272 272
273 272 271 271 270 270 270 269 269 269 269 269 269 273 274 274 273 272 272 272 273 273
273 271 270 269 269 269 269 269 269 269 268 267 268 270 272 274 272 272 272 274 274 275
272 270 269 269 269 269 269 268 269 268 268 267 266 270 272 274 272 270 272 274 274 274
270 269 269 268 268 267 267 268 267 267 267 268 268 268 272 275 273 272 273 271 271 272

GFSNIL_sfc_thetae_009.txt.gz
Theta_e
285 285 285 284 284 283 283 281 280 279 279 278 278 278 278 277 277 278 278 277 278 279
285 285 284 283 283 282 281 280 279 279 277 277 277 277 277 276 276 277 278 278 278 278
285 285 284 282 281 280 279 279 278 277 276 276 276 276 276 276 276 276 276 277 277 277
284 283 282 282 280 279 278 277 277 276 276 276 275 275 274 274 274 274 274 275 275 274
282 281 281 280 278 277 277 276 276 276 275 275 274 274 274 273 273 273 272 273 272 272
281 280 279 278 277 277 276 275 275 275 274 273 273 273 273 272 272 272 272 271 271 271
281 280 278 277 276 276 275 274 274 273 272 272 272 272 272 272 271 271 271 271 271 272
280 279 276 276 276 275 274 273 273 272 272 271 271 271 271 272 271 271 271 272 273 273
278 276 275 275 274 273 273 272 272 271 271 270 271 275 276 273 272 273 272 272 273 273
276 275 275 275 274 273 272 272 272 271 271 271 271 276 277 277 275 274 273 272 272 272
276 275 274 273 273 272 271 270 270 270 270 271 271 276 277 277 275 273 273 273 273 272
276 274 273 272 271 271 270 270 270 271 270 270 270 276 276 275 273 273 273 273 274 274
275 274 272 272 271 271 270 270 270 270 269 269 267 273 274 275 273 270 272 273 274 275
274 273 273 271 271 269 270 270 270 269 269 268 268 269 275 276 274 272 271 273 271 273

GFSNIL_sfc_thetae_012.txt.gz
Theta_e
287 286 286 284 285 284 284 283 282 281 280 279 279 279 279 278 278 278 278 277 277 278
287 286 286 284 284 284 283 282 280 280 279 279 278 278 277 277 277 277 278 277 278 277
286 285 285 281 282 282 281 281 279 279 279 278 277 277 276 276 276 276 276 277 276 277
285 284 284 282 282 280 280 280 279 279 278 277 276 276 275 275 275 275 275 275 275 275
284 283 283 282 281 280 280 279 279 278 277 276 276 275 275 274 274 273 273 273 273 273
283 282 283 282 281 280 279 278 278 277 276 275 275 274 274 274 273 272 272 273 272 272
283 283 283 282 280 280 279 277 277 276 276 274 274 273 273 273 272 271 272 272 272 272
283 283 282 280 279 279 278 277 276 274 274 273 273 273 272 272 272 271 271 272 273 273
282 281 280 279 278 277 276 275 274 274 273 272 273 277 278 274 272 272 272 272 273 274
281 279 278 278 276 275 275 274 273 273 272 272 272 279 279 277 273 273 273 273 273 273
279 278 276 276 275 275 274 274 273 272 273 272 272 280 281 279 275 274 274 273 273 273
279 278 275 275 275 275 274 273 273 273 272 272 272 280 281 279 274 274 273 273 274 273
278 278 276 276 275 275 274 273 273 272 272 272 271 279 280 279 273 272 272 273 274 276
276 277 276 276 274 273 273 272 272 271 271 271 271 275 280 280 273 271 271 272 272 274

GFSNIL_sfc_thetae_015.txt.gz
Theta_e
289 288 287 285 286 285 285 285 283 282 281 280 280 280 280 279 279 278 279 277 278 278
288 287 286 284 285 285 285 284 282 282 281 280 280 279 279 278 278 277 278 277 278 277
287 287 286 283 284 284 284 283 281 281 281 280 279 279 278 277 277 277 277 277 277 277
286 286 285 283 284 284 283 282 281 281 280 280 278 278 277 277 276 276 276 276 276 276
286 285 284 284 283 283 282 282 281 281 280 280 279 277 277 276 276 275 275 275 275 274
285 284 284 284 283 282 282 281 281 280 279 279 278 277 276 276 275 274 274 274 274 273
284 284 284 285 283 281 281 280 279 279 279 278 277 276 276 275 274 273 273 273 273 273
285 285 284 283 282 281 281 280 279 278 277 277 276 276 275 274 273 273 272 272 273 273
283 282 282 282 281 280 279 279 278 277 276 275 276 280 280 276 273 273 272 271 272 273
283 282 281 282 280 279 278 278 277 277 276 275 276 281 282 279 274 273 272 272 273 273
280 282 280 279 278 278 278 277 276 276 276 275 275 282 282 279 274 274 274 274 274 273
279 280 278 278 277 277 277 276 276 276 275 275 275 282 283 280 274 274 274 274 274 274
278 279 277 278 276 277 277 276 276 275 275 275 274 282 283 280 274 273 273 274 274 275
274 274 274 275 275 276 276 275 274 273 273 274 274 279 283 283 275 273 272 272 272 274